Year,Month,Day,Hour,Minute,Value (Times are PST for temperature in C)
2016,11,14,08,20,7.50
2016,11,14,08,21,7.50
2016,11,14,08,22,7.60
2016,11,14,08,23,7.60
2016,11,14,08,24,7.60
2016,11,14,08,25,7.60
2016,11,14,08,26,7.60
2016,11,14,08,27,7.60
2016,11,14,08,28,7.60
2016,11,14,08,29,7.60
2016,11,14,08,30,7.70
2016,11,14,08,31,7.70
2016,11,14,08,32,7.70
2016,11,14,08,33,7.70
2016,11,14,08,34,7.70
2016,11,14,08,35,7.80
2016,11,14,08,36,7.80
2016,11,14,08,37,7.80
2016,11,14,08,38,7.80
2016,11,14,08,39,7.80
2016,11,14,08,40,7.90
2016,11,14,08,41,7.90
2016,11,14,08,42,7.90
2016,11,14,08,43,7.90
2016,11,14,08,44,7.90
2016,11,14,08,45,7.90
2016,11,14,08,46,7.90
2016,11,14,08,47,8.00
2016,11,14,08,48,8.00
2016,11,14,08,49,8.00
2016,11,14,08,50,8.00
2016,11,14,08,51,8.00
2016,11,14,08,52,8.00
2016,11,14,08,53,8.00
2016,11,14,08,54,8.10
2016,11,14,08,55,8.10
2016,11,14,08,56,8.10
2016,11,14,08,57,8.20
2016,11,14,08,58,8.20
2016,11,14,08,59,8.20
2016,11,14,09,00,8.30
2016,11,14,09,01,8.30
2016,11,14,09,02,8.30
2016,11,14,09,03,8.40
2016,11,14,09,04,8.40
2016,11,14,09,05,8.40
2016,11,14,09,06,8.50
2016,11,14,09,07,8.50
2016,11,14,09,08,8.50
2016,11,14,09,09,8.60
2016,11,14,09,10,8.60
2016,11,14,09,11,8.60
2016,11,14,09,12,8.60
2016,11,14,09,13,8.60
2016,11,14,09,14,8.60
2016,11,14,09,15,8.70
2016,11,14,09,16,8.70
2016,11,14,09,17,8.70
2016,11,14,09,18,8.70
2016,11,14,09,19,8.80
2016,11,14,09,20,8.80
2016,11,14,09,21,8.80
2016,11,14,09,22,8.90
2016,11,14,09,23,8.90
2016,11,14,09,24,9.00
2016,11,14,09,25,9.00
2016,11,14,09,26,9.10
2016,11,14,09,27,9.10
2016,11,14,09,28,9.20
2016,11,14,09,29,9.20
2016,11,14,09,30,9.30
2016,11,14,09,31,9.30
2016,11,14,09,32,9.30
2016,11,14,09,33,9.40
2016,11,14,09,34,9.40
2016,11,14,09,35,9.50
2016,11,14,09,36,9.50
2016,11,14,09,37,9.60
2016,11,14,09,38,9.60
2016,11,14,09,39,9.70
2016,11,14,09,40,9.70
2016,11,14,09,41,9.70
2016,11,14,09,42,9.80
2016,11,14,09,43,9.80
2016,11,14,09,44,9.90
2016,11,14,09,45,9.90
2016,11,14,09,46,9.90
2016,11,14,09,47,9.90
2016,11,14,09,48,10.00
2016,11,14,09,49,10.00
2016,11,14,09,50,10.10
2016,11,14,09,51,10.10
2016,11,14,09,52,10.10
2016,11,14,09,53,10.10
2016,11,14,09,54,10.10
2016,11,14,09,55,10.20
2016,11,14,09,56,10.20
2016,11,14,09,57,10.20
2016,11,14,09,58,10.20
2016,11,14,09,59,10.20
2016,11,14,10,00,10.30
2016,11,14,10,01,10.30
2016,11,14,10,02,10.30
2016,11,14,10,03,10.30
2016,11,14,10,04,10.30
2016,11,14,10,05,10.40
2016,11,14,10,06,10.40
2016,11,14,10,07,10.40
2016,11,14,10,08,10.40
2016,11,14,10,09,10.40
2016,11,14,10,10,10.50
2016,11,14,10,11,10.50
2016,11,14,10,12,10.50
2016,11,14,10,13,10.50
2016,11,14,10,14,10.50
2016,11,14,10,15,10.50
2016,11,14,10,16,10.60
2016,11,14,10,17,10.60
2016,11,14,10,18,10.70
2016,11,14,10,19,10.70
2016,11,14,10,20,10.70
2016,11,14,10,21,10.70
2016,11,14,10,22,10.70
2016,11,14,10,23,10.70
2016,11,14,10,24,10.70
2016,11,14,10,25,10.70
2016,11,14,10,26,10.70
2016,11,14,10,27,10.70
2016,11,14,10,28,10.70
2016,11,14,10,29,10.70
2016,11,14,10,30,10.80
2016,11,14,10,31,10.80
2016,11,14,10,32,10.80
2016,11,14,10,33,10.80
2016,11,14,10,34,10.80
2016,11,14,10,35,10.80
2016,11,14,10,36,10.80
2016,11,14,10,37,10.80
2016,11,14,10,38,10.80
2016,11,14,10,39,10.80
2016,11,14,10,40,10.80
2016,11,14,10,41,10.80
2016,11,14,10,42,10.80
2016,11,14,10,43,10.90
2016,11,14,10,44,10.90
2016,11,14,10,45,10.90
2016,11,14,10,46,10.90
2016,11,14,10,47,10.90
2016,11,14,10,48,10.90
2016,11,14,10,49,10.90
2016,11,14,10,50,10.90
2016,11,14,10,51,10.90
2016,11,14,10,52,10.90
2016,11,14,10,53,10.90
2016,11,14,10,54,10.90
2016,11,14,10,55,10.90
2016,11,14,10,56,10.90
2016,11,14,10,57,10.90
2016,11,14,10,58,10.90
2016,11,14,10,59,10.90
2016,11,14,11,00,10.90
2016,11,14,11,01,10.90
2016,11,14,11,02,10.90
2016,11,14,11,03,10.90
2016,11,14,11,04,10.90
2016,11,14,11,05,10.90
2016,11,14,11,06,10.90
2016,11,14,11,07,10.90
2016,11,14,11,08,10.90
2016,11,14,11,09,10.90
2016,11,14,11,10,10.90
2016,11,14,11,11,10.90
2016,11,14,11,12,10.90
2016,11,14,11,13,10.90
2016,11,14,11,14,10.90
2016,11,14,11,15,11.00
2016,11,14,11,16,11.00
2016,11,14,11,17,11.00
2016,11,14,11,18,11.00
2016,11,14,11,19,11.10
2016,11,14,11,20,11.10
2016,11,14,11,21,11.10
2016,11,14,11,22,11.20
2016,11,14,11,23,11.20
2016,11,14,11,24,11.20
2016,11,14,11,25,11.20
2016,11,14,11,26,11.20
2016,11,14,11,27,11.20
2016,11,14,11,28,11.20
2016,11,14,11,29,11.20
2016,11,14,11,30,11.20
2016,11,14,11,31,11.20
2016,11,14,11,32,11.30
2016,11,14,11,33,11.30
2016,11,14,11,34,11.30
2016,11,14,11,35,11.30
2016,11,14,11,36,11.40
2016,11,14,11,37,11.40
2016,11,14,11,38,11.50
2016,11,14,11,39,11.50
2016,11,14,11,40,11.60
2016,11,14,11,41,11.60
2016,11,14,11,42,11.70
2016,11,14,11,43,11.70
2016,11,14,11,44,11.70
2016,11,14,11,45,11.70
2016,11,14,11,46,11.70
2016,11,14,11,47,11.70
2016,11,14,11,48,11.80
2016,11,14,11,49,11.80
2016,11,14,11,50,11.80
2016,11,14,11,51,11.80
2016,11,14,11,52,11.80
2016,11,14,11,53,11.80
2016,11,14,11,54,11.90
2016,11,14,11,55,11.90
2016,11,14,11,56,11.90
2016,11,14,11,57,11.90
2016,11,14,11,58,11.90
2016,11,14,11,59,12.00
2016,11,14,12,00,12.00
2016,11,14,12,01,12.00
2016,11,14,12,02,11.90
2016,11,14,12,03,11.90
2016,11,14,12,04,11.80
2016,11,14,12,05,11.80
2016,11,14,12,06,11.70
2016,11,14,12,07,11.70
2016,11,14,12,08,11.60
2016,11,14,12,09,11.60
2016,11,14,12,10,11.50
2016,11,14,12,11,11.50
2016,11,14,12,12,11.40
2016,11,14,12,13,11.40
2016,11,14,12,14,11.30
2016,11,14,12,15,11.30
2016,11,14,12,16,11.20
2016,11,14,12,17,11.20
2016,11,14,12,18,11.10
2016,11,14,12,19,11.10
2016,11,14,12,20,11.00
2016,11,14,12,21,11.00
2016,11,14,12,22,10.90
2016,11,14,12,23,10.90
2016,11,14,12,24,10.80
2016,11,14,12,25,10.80
2016,11,14,12,26,10.80
2016,11,14,12,27,10.80
2016,11,14,12,28,10.70
2016,11,14,12,29,10.70
2016,11,14,12,30,10.70
2016,11,14,12,31,10.70
2016,11,14,12,32,10.70
2016,11,14,12,33,10.70
2016,11,14,12,34,10.70
2016,11,14,12,35,10.70
2016,11,14,12,36,10.80
2016,11,14,12,37,10.80
2016,11,14,12,38,10.90
2016,11,14,12,39,10.90
2016,11,14,12,40,10.90
2016,11,14,12,41,11.00
2016,11,14,12,42,11.00
2016,11,14,12,43,11.10
2016,11,14,12,44,11.10
2016,11,14,12,45,11.10
2016,11,14,12,46,11.10
2016,11,14,12,47,11.10
2016,11,14,12,48,11.10
2016,11,14,12,49,11.20
2016,11,14,12,50,11.20
2016,11,14,12,51,11.20
2016,11,14,12,52,11.20
2016,11,14,12,53,11.20
2016,11,14,12,54,11.30
2016,11,14,12,55,11.30
2016,11,14,12,56,11.30
2016,11,14,12,57,11.30
2016,11,14,12,58,11.30
2016,11,14,12,59,11.30
2016,11,14,13,00,11.30
2016,11,14,13,01,11.30
2016,11,14,13,02,11.30
2016,11,14,13,03,11.30
2016,11,14,13,04,11.30
2016,11,14,13,05,11.20
2016,11,14,13,06,11.20
2016,11,14,13,07,11.20
2016,11,14,13,08,11.20
2016,11,14,13,09,11.20
2016,11,14,13,10,11.20
2016,11,14,13,11,11.20
2016,11,14,13,12,11.10
2016,11,14,13,13,11.10
2016,11,14,13,14,11.20
2016,11,14,13,15,11.10
2016,11,14,13,16,11.10
2016,11,14,13,17,11.10
2016,11,14,13,18,11.10
2016,11,14,13,19,11.10
2016,11,14,13,20,11.00
2016,11,14,13,21,10.90
2016,11,14,13,22,10.90
2016,11,14,13,23,10.90
2016,11,14,13,24,10.90
2016,11,14,13,25,10.90
2016,11,14,13,26,10.90
2016,11,14,13,27,10.90
2016,11,14,13,28,10.90
2016,11,14,13,29,10.80
2016,11,14,13,30,10.80
2016,11,14,13,31,10.80
2016,11,14,13,32,10.70
2016,11,14,13,33,10.70
2016,11,14,13,34,10.70
2016,11,14,13,35,10.70
2016,11,14,13,36,10.70
2016,11,14,13,37,10.70
2016,11,14,13,38,10.60
2016,11,14,13,39,10.60
2016,11,14,13,40,10.60
2016,11,14,13,41,10.60
2016,11,14,13,42,10.60
2016,11,14,13,43,10.60
2016,11,14,13,44,10.50
2016,11,14,13,45,10.50
2016,11,14,13,46,10.50
2016,11,14,13,47,10.50
2016,11,14,13,48,10.50
2016,11,14,13,49,10.50
2016,11,14,13,50,10.50
2016,11,14,13,51,10.60
2016,11,14,13,52,10.60
2016,11,14,13,53,10.60
2016,11,14,13,54,10.60
2016,11,14,13,55,10.60
2016,11,14,13,56,10.60
2016,11,14,13,57,10.60
2016,11,14,13,58,10.60
2016,11,14,13,59,10.60
2016,11,14,14,00,10.60
2016,11,14,14,01,10.60
2016,11,14,14,02,10.60
2016,11,14,14,03,10.60
2016,11,14,14,04,10.60
2016,11,14,14,05,10.60
2016,11,14,14,06,10.60
2016,11,14,14,07,10.60
2016,11,14,14,08,10.60
2016,11,14,14,09,10.60
2016,11,14,14,10,10.60
2016,11,14,14,11,10.60
2016,11,14,14,12,10.60
2016,11,14,14,13,10.60
2016,11,14,14,14,10.60
2016,11,14,14,15,10.60
2016,11,14,14,16,10.60
2016,11,14,14,17,10.60
2016,11,14,14,18,10.60
2016,11,14,14,19,10.60
2016,11,14,14,20,10.60
2016,11,14,14,21,10.60
2016,11,14,14,22,10.60
2016,11,14,14,23,10.60
2016,11,14,14,24,10.60
2016,11,14,14,25,10.60
2016,11,14,14,26,10.60
2016,11,14,14,27,10.60
2016,11,14,14,28,10.60
2016,11,14,14,29,10.60
2016,11,14,14,30,10.60
2016,11,14,14,31,10.60
2016,11,14,14,32,10.60
2016,11,14,14,33,10.60
2016,11,14,14,34,10.60
2016,11,14,14,35,10.60
2016,11,14,14,36,10.60
2016,11,14,14,37,10.60
2016,11,14,14,38,10.60
2016,11,14,14,39,10.60
2016,11,14,14,40,10.60
2016,11,14,14,41,10.60
2016,11,14,14,42,10.60
2016,11,14,14,43,10.60
2016,11,14,14,44,10.60
2016,11,14,14,45,10.60
